STARLINK-34672, 65894

Orbit data source: Space-Track

STARLINK-34672, 65894 is a payload satellite owned by SpaceX/Seattle (US) in LEO that was launched on Tue, 07 Oct 2025 UTC via an FALCON 9 launch vehicle from the Air Force Eastern Test Range (AFETR). Payload-class satellites include a variety of spacecraft equipped with specific instruments for various scientific and technological missions. These include communications satellites like Starlink; space stations such as the ISS; scientific satellites like the Hubble; Earth observation satellites from companies like Planet Labs, Umbra, and HawkEye 360; GPS; miniature CubeSats for education and research; and military/defense satellites.

Loading next visibility...
Identifier
65894, 2025-224N
Orbit
LEO
Country
Flag of USUS
Related business
Manufacturer
SpaceX/Seattle
Mission
Operational spacecraft
Bus & Motor
STARLINK V2MO, Unknown motor
Mass
575 kg wet, ~530 kg dry
Launch date (UTC)
2025-10-07 (2 months ago)
Launch vehicle
FALCON 9
Launch site
Air Force Eastern Test Range (AFETR)
Object type
Payload
Rocket body
Debris
Shape & HBR
Unknown shape, 17.7 m
Radar Cross Section
RCS unknown

Expand to show TLE details & history
Last TLE update: 16 hours ago

TLE from 16 hours ago
0 STARLINK-34672
1 65894U 25224N   25340.55747193  .00036039  00000-0  12221-2 0  9993
2 65894  53.1621  84.0505 0001340  99.9110 260.2042 15.30223745 10617
Epoch: 2025-12-06T13:22Z
TLE epoch observation values (Epoch: 2025-12-06T13:22:45.574Z)
Latitude
-0.00004°
Longitude
167.77708°
Altitude
476.2 km
Speed
7.629 km/s
True Right ascension
05h 36m 12s
True Declination
0° 00' 00"
Sunlit
Object was in full shadow at epoch
Visualization orbit readout
Latitude
Unknown
Longitude
Unknown
Altitude
Unknown
Speed
Unknown
Apparent Right ascension
Unknown
Apparent Declination
Unknown
Sunlit
N/A
Visualization observer readout
Local Sidereal Time
03:15:07
Azimuth
Unknown
Elevation
Unknown
Doppler factor
Unknown
Orbital elements
Apogee altitude
476.319 km
Perigee altitude
474.482 km
Semi-major axis
6,853.537 km
Eccentricity
0.00013
Inclination
53.1621°
RAAN
84.0505°
Arg. of periapsis
99.911°
True anomaly
260.18907°
Mean anomaly
260.2042°
Eccentric anomaly
260.19663°
Mean motion
3.82535 °/min
Orbital period
94.11 mins
BSTAR
0.0012221
Loading maneuver chart data...
Computing Atmospheric mass density...
Loading historical data...
Loading historical data...
Loading historical data...
Loading historical data...
Loading historical data...
Loading historical data...
Loading historical data...

Documentation

Showing up to 5 results
|